Temperature
15 15 15 16 16 16 16 16 16 16 16 16 17 17 17 17 18 18 18 18 18 18 18 18 18 18 18 18 18 18 18 18 18 18 18 18 18 18 18 18 18 18 18
15 15 15 15 15 15 15 16 16 16 16 16 16 17 17 17 17 17 17 17 17 18 18 18 18 18 18 18 18 18 18 18 18 18 18 18 18 18 18 18 17 17 17
15 15 15 15 15 15 15 15 15 16 16 16 16 17 17 17 17 17 17 17 17 18 18 18 18 18 18 18 18 18 18 18 18 18 18 18 18 18 18 17 17 17 17
14 14 14 14 14 15 15 15 15 15 15 16 16 16 16 17 17 17 17 17 17 17 18 18 18 18 18 18 18 18 18 18 18 18 18 18 17 17 17 17 17 17 17
14 14 14 14 14 14 14 14 15 15 15 15 16 16 16 16 17 17 17 17 17 17 17 18 18 18 18 18 18 18 18 18 18 18 18 17 17 17 17 17 17 17 17
14 14 14 14 14 14 14 14 14 14 15 15 15 16 16 16 16 17 17 17 17 17 17 17 17 18 18 17 18 18 18 18 18 17 17 17 17 17 17 17 17 17 17
13 13 13 13 13 13 13 14 14 14 14 15 15 15 16 16 16 16 16 17 17 17 17 17 17 17 17 17 17 17 18 17 17 17 17 17 17 17 17 17 17 17 17
13 13 13 13 13 13 13 14 14 14 14 14 15 15 15 16 16 16 16 16 16 17 17 17 17 17 17 17 17 17 17 17 17 17 17 17 17 17 17 17 17 17 17
13 13 13 13 13 13 13 13 13 14 14 14 14 15 15 15 15 16 16 16 16 16 16 17 17 17 17 17 17 17 17 17 17 17 17 17 17 17 17 17 17 17 17
13 13 13 13 13 13 13 13 13 13 13 14 14 14 15 15 15 15 15 16 16 16 16 16 16 17 17 17 17 17 17 17 17 17 17 17 17 17 17 17 17 17 17
13 13 13 13 13 13 13 13 13 13 13 13 14 14 14 15 15 15 15 15 15 16 16 16 16 16 16 16 17 17 17 17 17 17 17 17 17 17 17 17 17 17 17
13 13 13 13 13 13 13 13 13 13 13 13 13 14 14 14 14 15 15 15 15 15 16 16 16 16 16 16 16 16 17 17 17 17 17 17 17 17 17 17 17 17 17
13 13 13 13 13 13 13 13 13 13 13 13 13 13 14 14 14 14 14 14 15 15 15 15 16 16 16 16 16 16 16 16 16 16 16 16 17 17 17 17 17 17 16
13 13 13 13 13 13 13 13 13 13 13 13 13 13 13 13 14 14 14 14 14 15 15 15 15 15 16 16 15 16 16 16 16 16 16 16 16 16 16 16 16 16 16
14 13 13 13 13 13 13 13 13 13 13 13 13 13 13 13 14 14 14 14 14 14 14 15 15 15 15 15 15 15 16 16 16 16 16 16 16 16 16 16 16 16 16
14 14 13 13 13 13 13 13 13 13 13 13 13 13 13 13 13 13 13 13 14 14 14 14 14 15 15 15 15 15 15 16 16 16 16 16 16 16 16 16 16 16 16
14 14 14 13 13 13 13 13 13 13 13 13 13 13 13 13 13 13 13 13 13 13 14 14 14 14 14 14 15 15 15 15 15 15 15 16 16 16 16 16 16 16 16
14 14 14 14 13 13 13 13 13 13 13 13 13 13 13 13 13 13 13 13 13 13 13 14 14 14 14 14 14 14 15 15 15 15 15 15 15 15 15 15 16 16 16
14 14 14 14 13 13 13 13 13 13 13 13 13 13 13 13 13 13 13 13 13 13 13 14 14 14 14 14 14 14 14 14 14 15 15 15 15 15 15 15 15 15 15
14 14 14 14 13 13 13 13 13 13 13 13 13 13 13 13 13 13 13 13 13 13 13 13 13 14 14 14 14 14 14 14 14 14 14 14 14 15 15 15 15 15 15
14 13 14 13 13 13 13 13 13 13 13 13 13 13 13 13 13 13 13 13 13 13 13 13 13 13 13 13 13 13 14 14 14 14 14 14 14 14 14 14 15 15 15
14 13 13 13 13 13 13 13 14 14 13 13 13 13 13 13 13 13 13 13 13 13 13 13 13 13 13 13 13 13 13 13 13 13 13 14 14 14 14 14 14 14 14
14 14 13 13 13 13 14 14 14 14 14 13 13 13 13 13 13 13 13 13 13 13 13 13 13 13 13 13 13 13 13 13 13 13 13 13 14 14 14 14 14 14 14
14 14 14 13 13 13 14 14 14 14 14 13 13 13 13 13 13 13 13 13 13 13 13 13 13 13 13 13 13 13 13 13 13 13 13 13 13 13 13 13 14 14 14
14 14 13 13 13 13 14 14 14 14 14 13 13 13 13 13 13 13 13 13 13 13 13 12 12 13 13 13 13 12 12 12 12 13 13 13 13 13 13 13 13 13 13
14 14 14 13 13 13 13 14 14 14 13 13 13 13 13 13 13 13 13 13 13 13 12 12 12 13 12 12 12 12 12 12 12 12 12 12 12 12 12 13 13 13 13
Wind_Speed
2 3 2 1 2 2 1 2 3 3 3 3 4 4 4 4 4 4 6 8 9 9 8 7 7 8 9 9 9 9 9 9 10 10 10 10 11 12 11 11 11 12 12
2 2 3 3 2 2 2 2 3 2 3 3 4 4 4 3 4 3 6 8 10 10 9 8 8 9 10 11 10 10 10 10 10 11 11 11 12 12 12 12 12 12 12
3 2 3 3 3 3 3 2 3 2 2 3 3 4 3 3 3 4 4 7 9 11 11 10 9 9 11 11 11 11 10 11 10 11 12 12 12 12 12 12 12 12 12
6 2 3 4 3 3 3 3 2 3 3 2 2 3 3 3 4 3 3 4 6 8 10 11 10 10 11 12 11 11 11 11 11 11 12 12 12 13 12 12 12 12 12
7 3 3 3 3 2 3 4 2 2 3 3 3 3 3 3 3 4 3 3 5 7 8 11 12 11 12 12 12 11 11 11 11 12 12 12 13 13 12 12 12 12 12
6 4 3 4 3 3 3 3 4 3 3 3 4 3 2 3 2 2 2 2 2 5 8 9 9 10 12 13 12 12 12 12 11 11 13 13 14 13 13 12 13 13 12
4 3 3 3 3 2 3 4 3 4 3 3 2 2 2 2 2 2 2 1 1 2 5 7 8 8 10 13 14 13 13 12 12 11 13 14 14 14 13 13 13 13 13
4 4 4 3 3 2 3 3 3 2 3 2 1 1 1 1 1 3 2 1 1 0 1 3 5 7 8 9 12 14 14 13 12 12 13 14 14 14 14 14 13 13 14
2 3 4 3 4 2 2 3 2 2 2 3 1 0 0 0 1 1 2 1 1 1 0 1 2 5 7 9 9 13 14 12 12 12 13 14 15 15 15 15 14 14 14
2 2 3 4 3 2 2 3 2 1 1 2 2 2 1 0 0 0 1 0 1 2 1 1 2 2 5 7 9 12 14 13 12 12 12 13 14 15 15 15 15 14 14
2 1 2 3 3 2 1 1 2 2 1 1 2 2 2 1 1 1 0 1 1 1 1 1 1 1 3 6 9 11 14 13 12 12 12 12 13 14 14 15 15 15 14
1 2 2 3 2 2 2 1 2 1 1 1 2 1 1 1 1 0 0 1 1 1 1 1 1 1 3 6 8 11 13 13 13 12 12 11 12 13 14 14 15 15 15
1 2 3 2 2 2 2 1 2 2 2 2 1 1 1 2 0 0 0 0 1 1 1 1 1 1 2 5 6 10 11 12 12 12 12 11 11 12 13 14 15 15 15
1 1 2 2 1 2 2 1 2 2 1 2 2 1 1 1 0 0 1 0 1 1 0 1 0 1 2 3 5 8 8 11 12 12 12 12 11 11 12 13 13 14 15
2 2 3 2 2 1 2 2 1 2 1 1 1 1 1 1 1 0 0 1 1 0 1 1 0 0 1 2 6 7 7 10 12 13 13 12 12 11 11 11 12 13 13
2 2 2 3 2 1 1 1 1 1 1 1 1 2 2 1 1 1 1 1 1 1 1 1 1 1 1 2 5 5 6 10 13 13 13 13 12 12 11 11 11 12 13
2 2 1 2 2 2 2 1 0 1 1 1 1 1 1 1 1 1 1 1 2 2 1 1 1 2 2 2 2 3 4 6 9 13 14 13 13 12 12 12 12 12 13
2 2 1 2 2 2 2 1 1 1 1 1 1 0 1 1 1 1 1 1 1 2 2 2 1 1 1 2 2 3 3 5 6 10 13 14 13 12 12 12 12 13 13
2 2 1 2 2 2 2 2 1 1 1 0 0 0 0 1 0 1 1 1 1 1 1 1 1 1 1 1 1 1 2 1 3 7 11 13 14 14 13 13 13 13 13
2 2 2 1 1 2 3 3 2 2 1 1 1 1 1 1 1 1 0 1 0 0 1 1 1 1 1 1 1 1 1 1 2 3 5 8 11 13 14 14 14 14 14
2 2 2 2 2 2 3 4 4 3 2 1 1 1 1 2 3 2 0 1 1 1 1 1 1 1 1 1 1 1 1 1 2 1 1 3 4 5 8 12 14 15 15
2 2 2 2 2 3 4 5 4 4 3 1 1 0 1 2 3 2 1 1 1 1 1 1 1 1 2 1 1 1 1 0 1 1 1 2 2 4 5 8 12 15 16
0 1 1 1 1 2 3 4 5 4 3 2 1 0 0 1 3 2 1 2 2 3 3 2 2 2 2 1 1 1 1 2 2 3 1 2 2 4 4 7 11 14 16
1 1 1 0 1 1 1 3 5 4 3 2 1 1 1 1 2 2 0 1 1 1 2 1 2 2 1 1 1 2 2 2 2 2 2 3 3 3 3 4 10 13 15
1 1 1 2 1 1 0 1 3 3 2 2 0 1 1 2 4 4 1 1 1 1 1 1 1 1 2 2 1 1 1 1 2 2 2 2 2 2 2 3 6 10 13
3 2 2 2 1 2 1 1 2 2 3 2 1 2 4 3 4 4 2 1 1 2 1 1 1 2 2 2 3 4 3 3 2 2 2 1 1 1 2 2 2 3 6
Wind_Direction
337 336 321 329 313 316 278 259 248 240 235 246 237 233 233 226 236 195 165 174 183 186 189 192 191 180 178 173 170 167 164 162 163 163 159 156 155 152 150 150 148 146 144
337 332 324 331 318 322 303 276 272 251 229 232 241 240 244 231 241 214 177 181 193 194 192 195 194 188 182 179 177 173 168 167 167 168 165 161 160 158 158 157 155 153 151
346 353 351 336 330 328 325 315 307 312 272 238 234 235 241 237 246 235 199 188 193 200 197 196 196 191 187 183 182 179 174 172 170 169 167 164 163 162 162 162 163 162 159
357 3 347 328 329 335 334 316 307 315 307 296 262 244 235 223 242 240 217 206 193 193 195 195 193 191 189 187 186 183 181 177 173 171 169 167 166 166 167 168 166 164 163
349 357 340 327 331 337 333 319 339 332 315 309 278 242 228 204 232 243 233 230 204 184 180 188 191 191 188 187 187 185 180 178 178 177 174 172 171 169 171 172 171 170 169
346 353 325 331 344 348 329 321 319 313 295 288 285 277 227 202 208 233 246 258 224 190 171 172 182 189 189 186 185 183 180 178 181 183 181 179 177 175 177 178 175 174 173
354 337 332 332 337 325 316 320 322 320 312 300 310 314 268 199 180 212 236 268 254 196 163 168 174 174 184 189 186 182 182 183 186 188 186 184 181 180 181 181 180 178 177
5 342 341 331 321 318 324 319 319 317 311 322 335 323 312 331 271 215 205 207 254 232 172 177 169 166 173 174 187 184 183 185 188 191 190 187 185 184 184 184 185 185 183
5 337 321 318 315 319 316 306 316 316 296 308 331 89 101 260 277 261 201 174 195 167 232 221 186 169 167 167 173 183 181 183 188 192 193 191 189 188 187 186 187 188 188
1 333 314 309 306 314 328 316 326 307 285 297 310 307 300 143 149 319 319 263 210 181 181 250 214 177 158 159 161 170 179 184 188 192 191 190 192 190 190 191 192 192 191
314 320 308 300 307 308 301 295 309 299 288 279 291 308 316 331 341 118 192 288 297 259 178 246 233 145 147 147 157 167 174 180 185 189 193 194 192 193 194 195 196 196 196
310 349 326 323 333 334 320 308 285 275 255 263 275 298 312 327 320 39 239 248 250 272 251 213 204 156 141 144 159 164 175 183 186 190 191 194 197 201 201 199 200 201 201
338 344 343 329 336 325 312 293 287 265 244 239 237 248 283 286 283 6 11 322 286 271 223 225 197 146 131 132 144 162 179 185 189 192 191 193 198 204 206 205 205 206 206
314 319 312 316 330 320 313 307 275 262 239 243 241 219 238 265 292 229 155 109 335 314 285 205 94 122 118 126 155 172 190 191 193 196 196 196 199 204 208 208 207 207 209
318 343 339 343 344 349 343 340 317 331 337 290 292 289 245 232 207 278 46 152 153 224 272 224 86 157 143 144 168 188 196 199 196 199 200 200 201 203 207 211 212 212 212
337 334 347 343 359 22 12 18 336 324 312 242 218 231 241 221 164 195 211 227 176 175 237 266 254 225 200 187 193 201 205 196 199 201 202 201 203 204 208 211 213 214 215
313 326 341 343 12 19 19 59 312 336 311 302 287 222 248 225 184 216 210 205 199 183 213 262 271 217 192 185 181 203 196 196 202 205 205 205 206 208 209 213 216 218 220
312 326 4 34 35 19 16 24 14 322 298 326 313 317 291 274 177 219 205 214 203 192 183 220 250 239 212 198 193 204 200 204 199 203 203 205 208 210 212 214 218 220 221
335 336 26 47 31 21 19 7 8 342 300 207 178 119 354 15 73 215 202 220 228 217 182 198 227 240 237 207 195 224 220 206 209 203 202 207 210 213 216 218 220 221 222
335 345 22 52 37 29 17 6 353 340 9 43 50 68 58 55 48 18 356 321 296 251 251 225 223 226 225 229 181 204 242 245 239 214 199 202 210 215 219 222 223 224 225
334 9 15 20 27 35 24 19 355 348 2 27 25 54 90 111 106 113 117 330 334 265 255 238 248 259 242 198 196 213 213 256 279 225 193 208 199 209 218 225 226 226 226
337 12 15 15 29 32 31 30 10 336 332 355 39 81 147 151 153 150 162 201 208 225 239 240 244 244 249 216 184 186 169 166 279 260 163 250 214 217 219 215 220 220 222
208 335 343 16 60 52 39 13 357 331 313 325 2 60 14 111 139 165 192 204 225 244 238 228 235 247 262 240 197 219 217 222 242 239 220 255 244 239 232 225 220 219 222
171 219 250 270 122 91 55 352 338 307 291 295 271 209 208 87 74 73 226 216 223 256 259 225 219 244 264 255 207 219 223 260 280 258 201 232 247 247 248 224 227 223 223
212 218 224 225 209 158 155 350 350 306 293 294 327 54 68 73 61 51 36 302 259 269 258 153 196 255 274 278 240 194 228 233 273 267 226 214 243 264 266 250 231 224 224
206 215 224 223 198 146 144 49 358 316 319 335 39 83 77 70 61 46 35 7 354 324 352 351 319 295 272 253 234 205 206 220 245 258 228 188 251 291 291 270 229 211 227
Height
1500 1500 1500 1499 1499 1499 1498 1498 1498 1498 1498 1499 1500 1501 1502 1503 1505 1507 1508 1509 1511 1512 1514 1515 1517 1518 1519 1521 1522 1524 1526 1528 1530 1532 1534 1536 1537 1540 1542 1544 1546 1548 1550
1499 1499 1498 1498 1498 1497 1497 1497 1497 1497 1497 1497 1498 1499 1500 1501 1502 1504 1506 1507 1509 1510 1512 1513 1515 1516 1518 1520 1521 1523 1525 1527 1529 1531 1533 1535 1537 1540 1542 1544 1546 1548 1550
1498 1498 1497 1496 1496 1496 1495 1495 1495 1495 1496 1496 1496 1497 1498 1499 1500 1501 1503 1505 1507 1508 1510 1511 1513 1515 1517 1518 1520 1522 1524 1526 1528 1530 1532 1534 1537 1539 1541 1544 1546 1548 1550
1497 1496 1495 1495 1494 1494 1494 1494 1494 1493 1494 1494 1494 1495 1495 1497 1498 1499 1501 1502 1504 1506 1508 1509 1511 1513 1515 1517 1519 1520 1523 1525 1527 1529 1531 1534 1536 1538 1541 1543 1545 1547 1549
1495 1495 1494 1493 1493 1492 1492 1492 1492 1492 1492 1492 1492 1493 1494 1494 1496 1497 1498 1500 1502 1503 1505 1507 1509 1511 1513 1515 1517 1519 1521 1523 1526 1528 1530 1532 1535 1537 1540 1542 1544 1546 1548
1494 1493 1492 1492 1491 1491 1490 1490 1490 1490 1491 1491 1491 1491 1492 1493 1494 1495 1496 1498 1500 1501 1503 1505 1507 1509 1511 1513 1515 1517 1519 1522 1524 1526 1529 1531 1533 1536 1539 1541 1543 1545 1547
1492 1491 1491 1490 1490 1489 1489 1489 1489 1489 1489 1490 1490 1490 1490 1491 1492 1493 1495 1496 1497 1499 1501 1503 1505 1507 1509 1511 1513 1515 1518 1520 1522 1525 1527 1529 1532 1535 1537 1539 1542 1544 1546
1491 1490 1489 1488 1488 1488 1487 1487 1487 1487 1488 1489 1489 1489 1489 1491 1491 1492 1493 1494 1496 1498 1499 1501 1503 1505 1507 1509 1511 1513 1516 1518 1521 1523 1525 1528 1530 1533 1535 1538 1540 1542 1544
1490 1489 1488 1487 1487 1486 1486 1486 1486 1486 1486 1487 1488 1489 1489 1489 1490 1491 1491 1492 1494 1496 1498 1500 1502 1503 1505 1507 1509 1511 1514 1516 1518 1521 1523 1526 1528 1531 1533 1536 1538 1540 1542
1489 1487 1486 1486 1485 1485 1484 1484 1484 1484 1485 1485 1486 1488 1489 1489 1490 1490 1491 1491 1493 1494 1496 1498 1500 1501 1503 1505 1507 1509 1512 1514 1516 1519 1521 1524 1526 1529 1531 1533 1536 1538 1540
1488 1487 1485 1484 1484 1483 1483 1482 1482 1483 1483 1484 1485 1486 1487 1488 1489 1489 1490 1491 1492 1493 1494 1496 1498 1500 1501 1503 1505 1507 1510 1512 1514 1517 1519 1522 1524 1526 1529 1531 1533 1535 1538
1487 1486 1485 1484 1483 1482 1481 1481 1481 1482 1482 1483 1484 1484 1486 1487 1488 1488 1489 1490 1491 1492 1493 1494 1496 1498 1499 1501 1503 1505 1507 1510 1512 1514 1517 1519 1521 1524 1526 1528 1530 1532 1535
1487 1485 1484 1483 1481 1480 1480 1480 1480 1480 1481 1482 1482 1483 1484 1485 1486 1487 1488 1489 1489 1490 1491 1493 1494 1496 1497 1499 1501 1503 1505 1508 1510 1512 1514 1516 1518 1521 1523 1525 1527 1529 1531
1487 1485 1483 1482 1481 1479 1479 1479 1479 1479 1480 1481 1481 1482 1483 1484 1485 1486 1487 1488 1488 1489 1490 1491 1493 1494 1495 1497 1499 1501 1503 1505 1507 1509 1511 1513 1515 1518 1520 1522 1524 1526 1528
1486 1485 1483 1482 1480 1479 1478 1477 1477 1478 1479 1479 1480 1481 1482 1483 1484 1484 1485 1487 1488 1488 1489 1490 1491 1492 1493 1495 1497 1498 1500 1502 1504 1506 1508 1510 1512 1514 1516 1519 1521 1523 1525
1486 1484 1483 1482 1480 1479 1478 1477 1477 1477 1477 1478 1479 1479 1480 1481 1482 1483 1484 1485 1486 1487 1488 1488 1489 1490 1491 1493 1495 1496 1497 1499 1501 1503 1505 1507 1509 1511 1513 1515 1517 1519 1521
1485 1484 1483 1481 1480 1479 1478 1477 1477 1477 1477 1477 1478 1478 1479 1480 1481 1482 1483 1484 1485 1486 1486 1487 1488 1489 1490 1491 1492 1494 1495 1496 1498 1500 1502 1504 1505 1507 1509 1511 1513 1515 1517
1485 1484 1483 1482 1480 1479 1478 1477 1477 1476 1476 1476 1477 1477 1478 1478 1479 1480 1481 1482 1483 1484 1485 1485 1486 1487 1488 1489 1490 1491 1492 1494 1495 1497 1499 1500 1502 1504 1505 1507 1509 1510 1512
1484 1483 1482 1481 1480 1479 1478 1477 1477 1476 1476 1476 1476 1476 1476 1477 1478 1479 1479 1480 1481 1482 1483 1484 1484 1485 1486 1488 1488 1489 1490 1491 1492 1494 1495 1497 1498 1500 1501 1503 1504 1506 1507
1483 1483 1482 1481 1480 1479 1478 1477 1477 1476 1476 1476 1476 1476 1476 1476 1476 1477 1478 1478 1479 1480 1481 1482 1483 1484 1485 1486 1486 1487 1488 1489 1490 1491 1492 1493 1495 1496 1497 1498 1500 1501 1503
1482 1482 1481 1480 1480 1479 1478 1477 1477 1476 1476 1476 1476 1475 1475 1475 1476 1476 1476 1477 1478 1479 1479 1480 1481 1482 1483 1483 1484 1485 1486 1486 1487 1488 1489 1490 1491 1492 1493 1494 1495 1496 1498
1481 1481 1480 1480 1479 1478 1478 1477 1477 1476 1476 1476 1475 1475 1475 1475 1475 1475 1475 1476 1477 1477 1478 1478 1479 1480 1480 1481 1482 1483 1483 1484 1484 1486 1486 1486 1487 1488 1489 1490 1491 1492 1493
1479 1479 1479 1479 1478 1478 1477 1477 1476 1476 1476 1475 1475 1475 1475 1475 1474 1475 1475 1475 1475 1476 1477 1477 1477 1478 1478 1479 1479 1480 1481 1481 1481 1482 1483 1483 1484 1484 1485 1485 1486 1487 1488
1478 1478 1478 1478 1477 1477 1476 1476 1476 1475 1475 1475 1475 1474 1474 1474 1474 1474 1474 1474 1474 1475 1475 1475 1475 1476 1476 1477 1477 1478 1478 1478 1479 1480 1480 1480 1480 1481 1481 1482 1482 1483 1483
1477 1477 1477 1477 1476 1476 1476 1475 1475 1474 1474 1474 1474 1474 1473 1473 1473 1473 1473 1473 1473 1474 1474 1474 1474 1474 1474 1475 1475 1475 1475 1476 1476 1476 1477 1477 1477 1477 1477 1478 1478 1478 1478
1475 1475 1475 1475 1475 1475 1474 1474 1474 1473 1473 1473 1473 1473 1473 1472 1472 1472 1472 1472 1472 1472 1472 1473 1473 1472 1472 1473 1473 1473 1473 1473 1473 1474 1474 1475 1474 1475 1474 1474 1474 1474 1474